Simultaneous Nadir Overpasses (SNOs) Predictions

Prediction of SNOs between AQUA and NOAA-19 Satellite Orbit:

Table of predicted SNOs for the next 14.0 days since TLE Epoch: 10/26/2018
Index Date (AQUA) Time (AQUA) Lat,Lon (AQUA) SZA (AQUA ) Date (NOAA-19) Time (NOAA-19) Lat,Lon (NOAA-19) SZA (NOAA-19 ) Distance(km) Time Diff (sec)
1 10/29/2018 00:31:11 -80.66, -44.63 84.58 10/29/2018 00:30:06 -80.66, -44.80 84.54 3.03 65
2 10/29/2018 01:20:38 80.68, 122.74 95.48 10/29/2018 01:21:02 80.67, 122.77 95.46 1.23 24
3 10/31/2018 06:54:21 -80.66,-140.47 83.83 10/31/2018 06:54:37 -80.67,-140.62 83.82 2.91 16
4 11/02/2018 12:28:04 80.67, -43.98 96.90 11/02/2018 12:28:06 80.66, -44.15 96.90 3.23 2
5 11/04/2018 18:01:47 -80.65, 52.81 82.45 11/04/2018 18:01:39 -80.67, 52.81 82.43 2.31 8
6 11/06/2018 23:35:30 80.67, 149.20 98.25 11/06/2018 23:35:09 80.66, 149.26 98.25 1.17 21
7 11/07/2018 00:24:57 -80.66, -43.10 81.75 11/07/2018 00:26:10 -80.68, -43.06 81.77 1.88 73
8 11/09/2018 05:09:13 -80.65,-114.01 81.14 11/09/2018 05:08:42 -80.66,-114.17 81.10 3.17 31




NCC Satellite Simultaneous Nadir Overpasses (SNOs) Prediction Service
